Wind_Speed
15 15 15 15 14 14 12 12 11 10 9 9 11 13 13 14 15 16 16 16 15 13 11 12 12 11 9 7 6 6 6 7 7 7 8 9 10 11 12 11 11 11 12 12 12 12 12 11 11 10 10 10 10 11 11 13 14 15 16 18 19 20 20 20 19 18 17 16 15 15 16 16 17 17 17 18 19 19 18 18 19 19 19 19 19
15 15 15 14 14 13 12 12 11 10 9 9 11 13 13 13 15 16 16 16 14 11 11 12 12 9 7 6 6 6 6 6 7 8 9 10 11 11 11 11 11 11 11 11 11 11 10 10 9 9 9 10 10 11 12 13 14 15 17 18 20 20 19 19 18 17 17 16 15 15 16 17 18 18 19 19 20 20 20 20 20 21 20 20 19
15 15 14 13 12 12 12 12 11 10 10 10 12 13 13 13 14 14 14 15 13 10 11 13 11 8 6 5 6 6 6 6 8 9 10 10 11 10 10 11 11 11 11 11 10 10 9 8 8 8 9 10 10 11 11 13 14 16 18 19 19 19 18 18 18 18 17 16 16 16 16 17 18 20 20 20 21 21 21 21 22 22 22 21 21
15 14 13 12 11 11 11 11 11 10 11 12 12 13 13 12 13 13 14 14 12 10 11 12 9 6 6 6 6 6 6 7 8 9 10 10 10 9 10 10 10 10 10 9 8 7 7 6 7 7 8 9 10 11 11 13 15 17 18 19 20 19 18 18 20 20 18 16 16 17 17 18 19 20 21 22 22 22 22 22 22 23 23 22 22
14 13 12 11 11 10 10 11 10 10 12 12 12 13 12 12 13 13 14 13 11 10 11 11 8 6 6 6 6 6 7 8 9 9 9 9 9 8 9 10 10 9 9 8 6 5 4 5 5 6 7 8 10 11 13 14 15 17 19 20 20 19 18 19 21 21 19 17 17 18 18 19 20 21 22 23 23 24 23 24 24 24 24 23 22
13 12 11 11 10 10 10 10 10 10 12 13 13 13 12 13 14 14 14 12 10 10 11 10 7 5 6 6 6 6 8 8 8 9 8 8 8 8 9 9 9 8 7 6 4 3 3 4 5 6 7 9 11 13 14 15 16 17 19 20 20 20 19 20 21 20 19 18 18 18 20 21 21 22 23 24 25 26 25 26 26 26 25 24 22
12 11 11 11 10 10 9 10 10 11 12 13 14 14 13 13 14 14 13 12 10 10 11 10 6 6 6 6 6 7 8 8 7 7 6 7 7 8 9 9 8 6 5 4 3 2 2 3 4 6 8 10 12 13 15 16 16 17 19 19 20 20 21 22 22 21 20 19 18 19 20 21 22 22 23 25 26 27 27 27 27 27 26 25 23
11 11 11 11 10 10 9 9 10 11 12 13 14 14 13 13 13 13 13 12 10 9 10 9 6 6 6 5 6 6 7 7 6 5 5 5 7 8 8 8 7 5 4 3 1 1 1 3 5 7 9 10 12 14 15 16 16 17 18 18 19 20 21 22 21 20 20 19 19 19 20 21 22 23 24 25 27 28 28 27 27 28 27 26 25
11 10 11 11 10 10 10 9 10 11 12 13 14 14 13 13 13 13 12 11 10 9 10 9 6 6 5 5 5 5 6 6 5 4 4 4 6 7 8 7 6 5 3 2 1 1 2 3 6 7 9 10 12 14 15 16 16 16 16 18 19 20 20 21 21 20 19 19 19 20 21 22 22 23 24 25 27 28 29 28 27 28 27 26 25
11 11 11 11 11 10 10 10 10 12 12 12 14 14 13 13 13 13 12 11 9 9 10 9 7 6 5 4 4 4 5 5 4 3 3 3 5 6 6 6 5 4 3 2 2 2 4 5 7 8 9 11 13 14 15 15 16 16 16 17 19 20 20 20 20 20 18 18 19 20 21 22 23 23 24 26 28 29 29 28 27 27 27 26 26
11 11 12 11 11 11 10 10 11 12 12 12 14 14 13 13 13 13 12 11 9 9 9 9 7 6 4 4 4 3 3 3 3 2 2 2 3 4 4 4 4 4 3 4 4 4 6 8 9 9 10 12 13 14 15 15 15 16 16 17 18 19 20 20 20 20 19 18 19 20 21 21 22 23 24 26 28 29 29 28 28 27 26 25 25
12 12 12 12 11 10 10 10 10 11 12 12 13 13 13 13 13 13 12 10 9 8 8 8 7 5 4 3 3 2 2 2 2 2 1 1 1 2 3 4 4 4 4 5 6 6 7 9 9 10 11 12 14 14 14 14 14 15 16 17 18 19 21 20 20 20 19 18 19 20 21 21 22 23 24 26 28 29 29 28 27 27 26 25 25
12 12 12 11 10 10 9 10 10 11 12 12 12 12 12 13 12 12 11 10 9 7 6 7 6 5 4 2 2 2 1 1 2 1 1 1 2 2 3 4 5 6 6 7 8 8 8 9 9 10 11 12 13 12 12 12 13 15 17 17 19 20 21 20 20 20 19 18 19 20 20 21 22 23 25 26 28 28 28 27 27 26 25 24 25
12 12 11 10 10 10 10 10 11 12 13 12 11 11 11 12 12 11 10 9 8 6 6 6 6 6 5 3 3 2 1 1 1 1 1 2 3 4 4 5 6 7 7 9 9 9 9 9 10 10 10 11 12 13 12 13 14 16 17 18 20 20 20 20 19 19 19 18 18 19 20 21 22 23 25 26 27 28 27 26 26 25 23 23 24
11 11 11 10 10 11 11 11 11 12 12 12 11 11 11 11 11 11 10 9 7 5 6 6 5 6 6 5 5 3 3 2 1 2 1 2 2 4 5 4 6 8 8 9 9 10 10 10 10 10 10 11 12 14 14 14 15 16 18 19 20 20 20 20 20 19 19 18 19 20 20 21 22 24 25 26 27 26 26 25 25 23 21 22 23
11 11 10 10 11 12 12 11 12 12 12 11 11 11 11 12 12 12 10 8 7 5 5 5 5 6 7 6 6 5 4 3 3 4 2 3 3 3 5 4 5 8 8 8 9 10 11 10 10 9 9 11 12 14 14 13 13 16 18 19 20 20 19 20 19 19 18 18 19 20 21 22 23 24 26 26 25 25 25 25 23 21 20 21 23
11 11 11 11 12 13 13 12 12 13 13 12 12 12 12 12 12 12 10 8 7 7 6 6 6 6 6 7 7 7 6 4 5 6 4 3 4 5 7 4 5 9 8 7 9 10 10 10 11 10 9 10 12 13 14 14 13 15 17 19 19 19 19 19 19 18 18 18 19 20 21 22 23 24 25 25 24 24 24 24 23 20 19 21 22
11 11 11 12 13 13 14 13 12 13 13 12 12 12 13 13 12 12 11 9 8 8 7 6 6 6 5 6 6 7 7 6 5 6 6 6 5 5 7 5 5 9 9 8 9 9 10 10 12 14 13 12 13 14 16 17 17 16 17 19 19 19 19 18 18 18 18 18 19 20 21 21 22 23 25 24 23 24 23 23 22 20 19 21 22
10 11 11 12 13 14 14 14 13 13 13 13 13 13 13 13 12 12 11 10 10 9 8 8 7 6 6 5 6 6 7 7 6 6 6 6 7 5 6 6 5 6 7 6 8 10 13 12 11 14 16 14 15 18 18 19 19 17 17 18 18 18 18 17 17 17 18 18 19 20 21 20 21 23 24 23 23 23 22 23 22 20 19 20 21
11 11 11 12 13 14 15 14 14 13 13 13 13 13 13 13 12 12 11 11 11 9 8 8 8 8 7 6 6 6 7 8 8 9 6 7 9 5 3 6 4 5 6 5 7 11 14 15 13 15 18 15 16 18 18 18 19 17 16 17 17 17 16 16 16 17 17 18 19 20 20 19 21 23 22 21 21 21 21 21 21 20 20 20 21
11 11 11 12 13 14 14 14 14 13 13 13 13 13 13 13 13 12 12 12 12 10 8 9 10 9 8 8 7 6 7 8 8 8 8 9 10 4 2 6 5 7 9 7 9 11 12 14 14 15 18 17 16 17 17 17 18 18 16 16 16 15 15 15 16 16 17 18 19 19 19 19 20 21 20 20 20 19 19 20 20 19 19 20 20
11 11 11 11 12 13 14 14 14 14 14 14 14 14 13 13 13 13 13 13 12 11 9 9 10 10 9 9 9 8 8 8 7 6 7 9 9 4 4 7 7 8 11 10 11 12 12 13 13 13 17 18 17 17 17 16 17 18 17 16 15 14 14 15 16 16 17 18 19 18 18 18 20 19 18 19 19 18 18 19 19 19 19 20 20
11 11 11 11 12 13 13 13 14 14 14 15 14 14 13 13 13 13 13 13 13 13 12 10 11 11 11 11 10 10 9 9 9 8 9 10 8 6 6 8 9 9 12 12 12 13 14 14 14 15 16 17 17 17 17 17 17 17 16 15 14 14 14 15 16 17 18 19 18 18 17 18 18 17 18 19 19 17 17 18 19 19 19 19 19
12 11 11 11 12 13 13 13 14 14 14 15 15 14 14 13 13 13 12 12 13 13 13 12 12 12 12 12 11 11 10 10 10 10 11 11 10 10 9 10 10 9 11 13 12 14 16 15 15 16 16 17 17 16 17 18 17 16 15 14 14 14 15 16 17 17 18 18 18 17 18 18 17 16 18 19 19 18 17 17 18 18 19 19 19
12 12 12 12 12 13 13 14 14 15 15 15 15 15 14 13 13 13 12 12 13 13 13 13 13 12 13 13 12 12 11 11 11 11 11 11 11 11 12 11 11 10 13 14 14 15 17 16 16 15 14 16 17 16 16 17 16 15 15 14 14 15 15 16 17 18 18 19 18 18 17 17 15 16 17 18 19 18 17 16 17 17 18 18 18
13 13 13 13 13 13 14 14 14 15 15 15 15 14 14 14 13 13 13 13 13 13 13 14 14 13 13 14 14 13 13 12 12 11 12 12 12 12 13 13 12 12 13 15 15 14 14 15 16 15 13 15 16 16 15 15 15 14 14 15 15 15 16 17 18 18 19 19 19 18 17 16 14 15 17 18 19 18 17 16 16 17 17 17 17
15 15 14 14 14 14 14 14 14 14 15 14 14 14 14 14 14 13 13 13 12 13 13 13 14 14 14 14 15 15 14 14 13 13 13 13 13 14 14 14 14 13 12 14 15 14 13 14 15 15 15 16 16 15 15 14 14 14 14 15 16 16 17 17 18 19 19 19 19 18 17 15 14 15 17 18 19 19 18 16 16 16 16 17 17
16 16 15 15 15 15 15 15 15 15 15 15 14 14 14 14 14 13 13 13 13 13 13 13 14 14 14 14 14 14 14 14 14 14 14 14 15 15 15 15 15 14 13 15 14 13 15 14 14 16 16 15 16 15 14 13 13 13 14 15 16 17 17 18 19 20 20 20 19 19 17 14 14 15 17 18 19 19 18 16 16 16 16 16 17
17 17 16 16 16 16 16 16 16 16 15 15 15 15 15 14 14 14 14 14 13 13 13 13 13 14 13 13 13 13 13 13 13 14 14 14 14 15 15 15 15 14 14 15 14 13 15 15 15 17 15 14 15 15 13 13 13 13 15 16 16 17 18 18 19 19 20 21 20 19 17 15 14 16 17 18 19 20 20 18 16 16 16 16 16
18 18 17 17 17 17 16 16 16 16 15 15 15 15 15 15 15 14 15 15 14 14 14 13 13 13 13 13 12 12 12 12 12 13 13 13 14 14 14 14 15 15 14 15 15 14 15 15 15 17 16 15 15 14 13 13 12 13 14 15 16 17 18 18 18 19 20 20 21 20 17 16 15 16 17 18 20 22 22 20 17 16 16 16 16
19 19 18 18 17 17 17 17 17 17 16 16 16 16 16 15 15 15 15 15 15 15 14 14 14 14 13 13 13 13 13 13 12 13 13 14 14 14 15 15 14 15 15 15 15 15 14 14 15 17 17 15 13 12 13 13 12 13 14 15 16 18 18 17 17 19 20 20 21 20 18 17 16 16 17 18 20 22 23 22 20 18 17 16 16
21 20 20 19 18 18 18 18 18 18 17 17 17 17 16 16 15 15 16 15 15 15 15 14 14 14 14 13 13 13 14 14 13 13 14 14 15 15 15 16 15 15 15 15 16 15 14 14 14 15 15 14 12 10 11 13 13 13 14 14 15 16 16 16 18 19 20 21 22 22 20 18 17 17 17 18 20 22 24 24 22 20 19 18 16
22 21 21 20 19 19 19 19 19 18 18 18 18 18 17 17 16 16 16 16 15 16 15 15 15 15 14 14 14 14 14 14 14 14 14 14 15 15 15 15 15 15 16 15 15 14 13 14 14 14 13 12 12 10 10 12 13 13 13 13 14 15 14 16 18 18 19 22 23 23 21 19 18 17 17 19 20 22 23 23 22 20 20 19 17
22 22 21 21 20 20 20 20 20 19 19 18 18 18 18 17 16 16 17 17 16 16 16 15 15 15 15 14 14 14 14 15 14 14 14 15 15 15 15 15 14 15 15 14 13 13 13 14 14 13 13 11 10 10 10 11 12 12 12 13 14 14 14 17 18 17 19 23 24 24 23 21 20 19 18 19 20 21 22 23 22 20 19 18 17
22 22 22 21 21 21 21 21 20 20 19 19 19 19 18 17 17 17 18 17 17 16 16 16 16 16 15 15 14 14 15 15 14 14 14 15 15 15 15 15 14 15 15 14 13 13 13 14 14 13 13 11 10 10 10 11 12 12 12 13 14 14 16 18 17 17 20 23 24 24 23 23 22 21 20 20 20 21 22 22 22 21 19 17 16
23 22 22 22 22 21 21 22 21 20 20 19 19 19 19 18 18 18 18 18 18 17 17 17 17 17 16 16 15 15 16 15 15 14 15 15 15 15 15 15 15 15 16 15 13 13 13 14 13 13 13 12 11 11 11 12 13 13 13 14 14 15 16 17 17 18 21 22 23 23 22 22 22 22 21 21 21 21 21 21 21 20 19 18 16
23 24 24 23 23 22 22 22 22 21 21 20 20 20 19 19 19 19 20 19 19 18 18 18 18 18 17 16 16 16 16 16 15 15 15 15 15 15 15 16 16 15 15 15 14 13 13 13 13 13 12 12 12 11 12 13 14 15 15 15 15 16 17 17 18 19 21 22 22 23 23 21 21 22 22 22 22 21 21 20 20 20 19 18 17
24 24 24 24 24 23 23 23 23 23 22 21 21 20 20 20 20 20 20 20 20 19 18 18 18 18 18 17 16 16 16 16 16 16 16 16 15 15 15 16 16 15 15 14 14 13 13 12 12 12 13 13 12 12 13 14 15 16 16 16 17 17 18 18 19 20 21 21 22 22 22 22 22 22 22 22 22 21 19 19 19 19 19 18 16
25 25 25 25 25 24 24 24 24 24 24 23 22 21 21 21 21 20 20 20 20 19 18 18 18 18 18 17 17 17 17 17 16 16 16 16 16 16 16 16 16 15 15 15 15 14 13 13 13 13 13 13 13 13 14 15 15 15 15 15 17 19 20 20 20 20 20 20 21 20 20 20 22 23 23 22 21 21 19 19 19 19 18 17 15
25 26 26 26 26 25 25 25 25 25 25 24 24 23 22 22 21 21 20 20 20 19 19 18 18 18 18 18 17 18 18 18 17 17 17 18 17 17 17 17 16 16 16 16 16 15 15 15 16 16 16 14 14 14 15 15 15 15 15 15 17 19 20 21 20 20 20 19 19 19 19 20 20 22 23 22 21 21 21 19 19 19 18 16 13
26 27 27 27 27 26 26 26 26 26 26 25 25 24 23 23 23 22 21 21 21 20 19 19 19 19 19 19 19 19 19 19 18 18 18 19 19 18 19 19 18 18 18 17 16 17 17 17 17 18 19 19 17 15 15 15 15 15 15 16 18 19 19 20 21 21 20 19 18 18 19 20 21 22 22 22 21 21 21 20 19 19 17 15 12
29 28 28 28 27 27 27 27 27 26 27 27 26 25 24 24 24 24 23 23 22 22 21 20 20 20 20 20 20 20 20 20 19 19 19 19 20 19 19 20 20 20 21 19 16 18 19 18 18 20 21 23 21 14 11 15 16 16 17 17 18 20 19 20 21 21 20 19 19 19 19 19 21 22 23 22 22 21 20 19 19 18 16 14 11
30 30 30 29 28 28 27 27 27 27 27 28 27 25 25 26 26 25 25 25 24 24 23 23 22 22 22 21 21 21 21 21 20 20 20 19 20 19 19 21 21 22 23 22 19 20 21 20 21 22 21 23 22 15 10 15 17 16 18 19 20 21 21 20 21 21 20 20 20 20 20 19 20 22 23 21 21 20 19 18 17 16 15 13 10
32 31 31 31 30 29 28 28 27 27 28 29 28 26 27 27 27 27 27 26 26 25 25 25 24 23 23 23 23 23 23 22 22 21 20 20 20 21 21 22 23 23 24 23 22 23 24 23 23 23 21 23 24 17 11 14 18 17 18 20 21 21 22 21 21 20 20 21 20 20 21 20 19 20 21 21 20 20 19 17 15 14 13 11 9
34 32 31 31 31 31 30 29 28 28 29 30 30 28 29 29 28 29 29 28 27 27 27 27 27 25 25 25 24 24 24 24 23 22 21 22 22 23 23 23 24 24 25 25 25 25 26 26 26 25 23 25 26 19 12 15 18 18 19 20 21 22 23 23 22 21 21 21 20 19 20 20 20 20 21 22 22 20 19 18 15 12 11 9 8
35 34 33 33 33 33 32 32 31 30 30 32 32 30 30 30 30 30 30 30 29 29 28 29 29 28 27 26 26 26 24 24 24 22 21 23 24 24 25 25 25 25 26 27 28 27 27 28 29 26 24 27 25 18 15 17 19 19 20 21 22 23 24 24 22 21 20 20 19 18 19 20 20 20 21 23 23 20 18 17 14 11 9 8 7
36 35 34 33 34 34 33 34 33 33 32 34 34 32 30 30 30 30 31 31 32 33 32 30 28 27 28 28 28 29 27 24 23 22 22 24 25 25 26 26 26 26 26 27 28 28 28 30 31 29 27 27 23 19 19 20 20 21 21 22 22 23 22 21 21 21 20 18 18 18 18 19 20 20 20 21 22 21 17 15 14 11 9 9 9
37 38 35 34 34 34 35 36 35 34 34 35 35 34 32 32 32 32 33 34 34 35 35 33 29 27 28 30 31 32 28 23 22 23 23 25 26 27 27 27 27 27 27 26 27 28 29 30 31 30 28 26 23 22 23 22 22 23 23 23 23 21 19 19 20 23 22 18 18 19 19 19 20 20 20 19 21 21 17 13 13 12 11 12 12
38 39 37 35 35 35 36 37 36 36 36 36 34 33 33 34 34 34 33 34 36 36 36 37 34 30 30 32 33 31 26 23 23 24 24 26 28 29 29 29 28 28 28 27 28 28 28 29 30 29 28 27 26 26 26 24 24 24 23 24 23 20 19 20 20 23 24 21 20 20 20 20 19 19 19 18 18 20 18 14 14 14 14 16 17
38 38 37 37 36 35 35 36 36 35 35 35 35 34 33 34 36 36 35 35 36 36 35 38 39 34 32 32 31 28 25 25 27 27 27 28 30 30 31 31 31 30 29 28 29 30 29 28 29 30 30 30 29 29 28 26 25 25 24 25 23 21 21 22 21 22 24 23 21 21 22 22 20 18 17 16 17 18 17 15 16 17 18 19 20
37 37 38 38 35 33 32 34 34 34 33 35 35 35 34 34 35 37 37 36 36 35 34 35 38 37 34 31 29 27 27 29 30 30 30 31 32 32 33 33 33 32 31 31 32 32 30 28 28 31 32 32 33 32 29 28 27 26 25 25 24 23 24 25 24 24 25 24 22 21 22 22 21 18 16 15 16 18 18 18 18 19 21 23 23
Wind_Direction
142 143 144 141 139 140 140 137 132 130 131 135 137 136 139 143 144 141 136 134 129 124 121 121 124 127 126 121 119 118 116 118 121 121 120 122 126 127 125 124 123 123 122 116 110 105 102 98 94 87 78 66 55 44 35 29 24 20 17 14 11 8 5 4 3 4 8 11 12 13 14 15 12 8 5 2 1 359 357 357 356 354 351 348 347
147 147 144 141 141 139 137 133 128 130 134 138 139 138 141 143 141 139 135 133 130 125 122 125 129 129 124 121 121 119 118 121 123 123 123 124 128 129 126 125 125 124 122 117 112 108 102 96 88 79 67 56 46 38 31 27 22 18 15 12 9 7 5 4 3 4 5 7 10 11 12 14 13 9 5 2 0 358 357 357 356 354 352 348 346
150 147 144 142 141 137 135 131 129 133 138 141 140 140 143 143 140 138 134 131 128 123 125 130 131 128 123 122 123 121 120 124 126 124 125 127 129 130 127 126 125 124 121 118 115 110 103 94 82 69 56 45 37 30 25 22 19 15 12 10 7 6 5 4 2 2 1 2 6 8 10 13 12 9 6 2 360 357 356 356 355 353 350 348 345
150 145 144 144 140 136 133 132 135 139 142 145 142 141 144 143 141 138 134 132 128 126 131 134 132 125 121 122 123 124 123 128 129 127 128 130 131 131 128 127 126 124 122 121 119 114 105 91 73 57 45 34 27 23 18 15 14 11 9 7 5 4 4 2 359 0 0 360 4 5 7 10 9 7 5 2 360 357 355 354 353 351 349 348 345
149 146 145 143 139 136 135 137 140 144 148 147 142 141 143 144 143 139 136 133 130 133 138 138 133 124 121 123 125 127 129 133 131 130 131 133 133 131 130 130 129 127 127 129 126 116 99 76 55 39 28 21 19 16 13 10 9 8 6 5 3 2 1 1 359 360 2 360 2 3 3 6 5 4 3 2 360 356 355 353 351 350 348 348 346
152 148 146 143 140 139 139 140 142 148 151 147 142 142 144 146 146 143 141 138 135 140 145 142 131 121 122 123 128 131 134 137 135 132 134 136 137 136 136 136 136 136 136 135 126 106 77 51 34 20 12 10 11 10 8 8 7 4 3 2 2 1 358 359 360 0 1 360 1 2 1 1 360 360 0 360 359 357 356 354 352 351 349 349 347
155 151 149 145 143 145 144 144 145 149 151 147 146 147 147 148 152 152 148 143 138 141 149 148 132 120 120 122 129 135 138 140 136 134 136 140 142 143 145 146 145 144 141 135 117 86 47 26 15 9 5 5 5 6 6 7 7 4 1 360 0 1 357 355 358 360 1 360 1 1 360 358 355 356 358 358 358 358 356 355 354 354 352 350 349
159 156 152 148 149 152 149 148 148 150 152 150 148 149 150 151 156 157 153 147 140 143 154 153 136 117 114 118 126 137 144 143 135 133 138 144 149 151 154 155 155 151 147 143 129 80 12 359 1 2 0 1 1 2 3 5 6 3 360 359 359 359 357 355 356 357 359 359 360 1 359 356 354 355 356 356 357 358 357 356 356 355 355 353 350
159 157 155 153 155 156 153 151 150 152 154 152 151 152 152 154 160 160 156 151 144 149 158 156 141 118 107 113 124 140 151 147 135 129 128 138 153 161 163 165 168 168 170 177 195 277 327 339 346 351 353 356 358 359 360 0 2 360 356 356 355 356 357 355 354 355 357 358 359 359 358 356 355 355 356 356 356 357 358 357 356 356 356 355 353
155 157 157 157 159 159 157 155 154 155 155 155 156 156 154 158 165 164 159 157 152 153 161 162 151 127 108 112 120 136 154 159 147 127 113 130 158 168 173 177 182 191 209 232 258 299 321 331 337 342 347 352 354 355 356 356 355 353 351 350 351 353 354 353 352 353 354 357 358 358 358 357 356 355 356 357 356 357 359 358 357 357 357 357 355
155 157 159 160 161 160 158 157 156 157 157 158 159 158 157 161 169 167 161 161 157 154 161 168 163 145 126 114 112 125 153 171 171 148 124 131 166 176 187 204 212 223 236 263 282 305 322 327 332 336 342 347 349 350 350 350 348 346 345 344 345 350 352 351 350 349 351 356 358 357 358 358 357 356 357 357 357 357 358 358 357 357 357 358 356
155 158 160 161 160 157 156 155 156 158 159 161 163 161 158 161 170 170 165 165 161 157 162 169 173 167 145 113 104 117 149 175 183 187 177 164 200 207 220 238 254 260 268 282 292 309 319 322 329 336 342 347 348 348 345 343 342 341 340 340 343 348 348 348 347 346 348 353 357 357 358 359 358 357 357 358 357 356 357 357 356 356 356 357 357
156 158 159 160 157 153 153 154 156 160 162 164 166 163 158 162 170 174 172 169 167 166 166 165 171 184 180 155 138 125 129 180 182 185 267 284 280 283 273 277 282 283 291 296 301 313 318 321 329 337 344 350 347 344 342 340 340 340 340 340 342 344 345 345 345 344 346 351 356 358 359 359 357 357 358 358 357 356 356 356 355 355 357 357 357
159 160 159 160 157 152 152 155 157 162 165 167 168 164 161 165 172 178 178 172 173 174 171 167 172 185 188 199 209 178 151 180 170 180 277 291 291 299 300 300 295 297 307 307 309 317 319 323 329 335 344 349 343 341 342 342 343 342 340 339 339 341 343 343 344 343 344 349 355 358 359 358 357 357 358 357 356 356 355 355 355 356 358 359 358
161 162 161 162 160 155 154 156 158 162 166 168 168 166 167 172 176 182 180 173 176 180 181 179 176 177 179 203 215 211 229 234 255 246 246 282 291 299 299 295 290 299 314 313 315 320 320 323 325 334 342 342 341 342 343 342 342 340 336 335 337 340 341 342 343 342 342 348 355 358 359 358 357 357 357 356 356 356 355 354 356 358 1 1 0
163 163 165 167 164 159 157 158 160 163 167 169 169 171 175 178 181 184 182 176 177 184 196 196 185 178 179 198 198 195 227 235 246 252 250 292 294 282 279 276 280 295 315 315 312 316 318 318 316 324 334 335 339 338 332 333 337 337 332 331 335 339 340 341 342 342 343 349 355 358 359 359 357 357 357 356 356 356 354 354 357 2 5 5 2
167 167 169 171 167 164 160 160 163 165 169 171 173 176 179 182 183 186 189 187 186 189 199 206 202 193 188 201 193 186 212 214 229 248 233 251 278 276 273 269 272 288 307 307 302 309 312 313 313 318 324 326 328 322 318 324 331 333 331 331 335 339 340 341 342 344 345 350 355 357 359 360 357 356 356 356 358 357 355 356 360 6 9 8 4
169 172 173 173 169 167 164 163 166 169 172 174 176 179 182 186 185 189 195 195 195 194 198 208 209 202 197 214 212 200 217 214 217 249 241 236 254 276 286 282 275 290 304 307 306 305 299 303 314 315 313 313 313 313 320 326 327 331 333 333 337 340 340 342 343 345 347 350 355 357 359 359 357 357 357 358 360 360 357 358 2 9 12 10 7
171 173 174 173 169 169 168 168 170 173 176 177 181 182 186 190 189 195 202 197 197 200 205 210 204 203 201 213 228 226 234 230 222 239 245 252 254 257 286 291 292 297 301 304 299 293 291 298 311 309 305 310 315 318 326 327 325 330 335 335 339 341 341 344 346 347 348 350 354 356 357 358 357 359 360 0 3 2 359 1 4 10 13 10 9
173 173 173 171 171 172 174 174 175 178 180 182 186 189 192 196 197 202 209 205 203 206 213 213 205 209 209 208 224 231 238 243 241 242 240 255 258 242 262 283 289 283 276 278 282 288 298 305 309 304 302 310 317 320 327 327 325 329 336 339 341 342 343 346 347 347 348 351 354 354 356 358 360 1 3 4 5 3 1 3 5 8 11 10 10
176 174 172 172 173 176 179 181 181 184 186 190 196 199 201 203 205 209 213 214 213 216 221 216 210 212 214 214 219 223 230 237 243 250 248 250 256 263 303 288 282 277 277 274 278 287 296 302 309 307 306 314 320 321 325 326 325 331 339 343 343 344 344 346 347 346 348 352 353 354 357 0 2 3 6 8 6 4 4 6 6 8 10 9 11
181 178 174 173 176 179 184 187 189 192 194 199 204 208 211 213 214 214 216 218 219 224 226 220 218 218 219 222 224 229 235 235 237 246 251 252 256 275 308 290 278 281 284 276 277 287 290 298 308 305 308 318 323 323 326 328 329 333 339 343 343 344 345 345 346 346 349 352 352 356 360 1 2 6 10 11 9 5 5 8 7 7 10 10 13
186 184 180 179 181 184 189 193 196 200 202 206 210 213 216 218 219 219 221 222 222 225 227 226 227 226 226 228 229 237 242 243 245 246 252 259 262 263 270 274 273 279 286 283 283 291 294 302 304 304 313 321 323 326 327 328 332 334 337 342 344 345 347 346 346 348 349 350 352 358 1 0 2 8 13 13 10 6 5 6 5 6 9 11 14
192 192 191 190 191 193 196 200 203 205 207 211 214 215 218 220 222 224 227 228 228 229 229 230 234 232 232 233 235 243 248 250 254 256 259 264 270 272 273 278 281 283 288 290 295 299 300 303 305 309 318 322 325 330 328 329 334 336 337 342 346 347 348 347 347 348 348 350 355 359 0 0 3 10 14 14 11 6 3 1 1 4 7 8 12
196 197 198 198 200 201 202 205 207 209 209 212 215 216 219 222 225 229 232 233 233 235 234 234 238 238 236 237 239 244 250 254 255 258 263 266 269 273 273 277 285 289 290 293 299 304 305 308 310 314 321 326 330 333 332 332 335 337 339 343 347 348 348 347 346 346 348 351 356 358 359 1 5 11 15 14 12 7 1 357 355 359 3 5 8
201 201 203 203 204 206 206 207 210 211 211 213 215 216 218 221 225 229 234 237 238 238 239 238 240 242 242 243 244 247 251 256 259 260 263 266 270 274 275 277 282 287 292 296 301 305 303 306 311 315 324 331 332 335 337 336 336 339 340 341 345 346 345 344 343 345 349 353 356 357 359 3 7 13 16 15 12 8 2 354 349 351 357 2 4
205 206 207 207 209 211 211 211 212 214 214 215 217 218 219 220 223 227 232 238 240 240 240 241 243 244 246 248 249 252 255 258 261 262 262 264 269 273 276 280 282 284 287 292 300 304 301 303 307 310 322 331 332 337 339 336 336 338 338 340 342 342 341 340 342 345 349 353 356 358 1 6 11 16 17 16 13 9 3 354 347 347 351 356 359
210 211 212 212 213 215 215 215 216 217 217 218 218 219 222 223 225 229 234 238 241 241 240 241 243 245 248 250 252 255 258 258 259 261 262 266 269 272 276 279 281 284 285 287 294 298 300 307 306 305 319 330 331 336 338 334 336 337 338 339 338 338 338 338 341 346 350 353 356 359 2 6 12 17 18 15 12 9 4 357 351 348 348 352 354
215 217 217 217 216 218 218 219 219 220 221 221 221 222 225 228 229 232 237 240 242 242 241 241 242 244 246 249 252 255 257 258 258 260 262 266 270 272 275 278 281 284 287 289 292 291 294 303 303 303 318 331 329 334 337 334 336 336 337 337 335 335 336 338 343 347 349 352 355 359 1 3 9 14 15 13 10 8 6 2 358 352 349 349 351
221 222 223 222 220 221 222 223 224 225 226 228 229 230 230 231 233 235 239 241 242 242 242 243 244 245 246 248 250 253 256 258 258 260 263 265 269 271 273 276 279 283 285 287 289 289 292 300 302 304 317 329 329 332 334 333 335 334 334 334 331 332 336 340 344 346 347 349 351 354 355 357 2 7 9 8 8 7 7 6 3 359 353 349 350
228 228 229 228 225 225 226 228 229 230 231 233 234 235 234 234 235 238 241 243 243 244 245 246 248 249 249 249 250 252 255 258 258 260 264 267 268 271 274 276 278 281 283 284 286 290 292 296 300 303 311 321 325 327 328 330 333 333 332 332 331 334 340 343 344 344 344 345 347 348 348 350 354 359 1 3 4 5 6 7 5 4 0 354 352
232 232 234 233 231 230 229 230 232 233 234 234 236 237 237 236 237 239 242 244 245 247 248 249 251 253 253 252 252 253 255 258 259 261 264 268 272 273 275 278 280 281 281 282 286 292 294 294 296 298 303 313 320 324 326 326 328 332 331 331 334 339 343 342 340 342 342 341 343 344 343 344 347 351 354 357 359 1 2 4 4 4 3 359 355
234 235 237 237 235 234 233 232 232 233 234 234 235 237 238 239 239 241 245 246 246 248 249 250 252 255 256 254 254 256 257 260 262 263 265 268 273 275 274 276 279 279 281 283 287 290 289 287 287 288 294 306 315 321 327 325 327 332 331 332 338 342 345 342 337 337 340 339 340 341 341 342 343 345 348 352 354 356 358 0 1 2 2 359 356
235 236 238 239 238 235 234 235 234 234 236 236 237 238 239 241 241 243 248 250 250 250 251 251 253 255 257 257 258 259 261 263 263 264 266 268 271 274 276 277 277 278 280 283 285 286 285 284 287 289 295 303 309 315 323 324 324 329 329 331 336 338 342 342 334 331 337 337 336 340 342 342 342 342 343 347 350 351 353 356 358 358 358 356 354
235 235 237 239 238 235 235 236 236 237 238 238 239 241 241 243 243 244 248 251 253 253 254 254 255 257 259 260 261 261 262 264 266 266 266 266 268 271 274 276 277 276 277 279 281 282 282 284 290 294 298 304 307 311 317 319 320 323 324 327 331 333 336 338 334 329 332 334 334 338 340 339 338 338 339 342 345 347 349 352 355 356 355 354 351
234 235 236 237 237 236 236 237 238 239 241 241 242 244 245 246 246 246 249 252 253 253 254 255 256 257 259 261 261 262 262 264 266 267 266 266 266 267 269 271 271 271 273 276 277 278 278 283 289 293 296 300 303 306 310 314 315 318 319 321 325 328 332 335 332 327 328 331 331 332 332 333 333 333 335 339 341 342 345 349 353 354 353 352 349
235 235 236 237 238 237 237 239 240 240 242 243 244 246 247 248 249 248 250 252 254 254 254 255 256 258 261 262 261 260 262 264 265 266 266 266 265 265 266 267 268 269 272 276 278 278 279 281 286 290 291 293 296 298 303 309 312 315 316 316 320 325 329 331 330 327 328 330 329 328 328 329 329 329 331 335 337 337 340 345 349 350 351 350 348
238 237 238 238 239 240 240 241 242 242 243 244 244 245 247 248 249 250 251 253 255 256 255 255 257 260 262 263 261 260 260 262 263 265 266 267 266 266 265 267 271 273 275 278 278 278 278 279 282 285 285 286 288 290 296 303 310 312 313 315 318 322 325 326 327 327 326 326 326 327 326 326 327 327 328 332 333 333 336 341 343 345 347 347 347
239 240 240 241 241 241 242 243 244 244 245 245 244 244 244 246 247 249 251 253 255 256 256 255 256 258 260 260 259 259 259 259 261 263 265 266 266 265 265 266 271 274 276 276 276 276 277 276 275 272 271 273 278 284 290 298 305 308 309 312 315 320 323 324 326 325 323 323 324 325 325 324 324 325 326 328 329 329 334 338 338 339 343 345 346
238 240 240 242 243 242 243 244 244 245 246 246 246 245 244 245 246 246 248 250 253 254 255 255 256 257 257 258 257 257 257 257 259 261 263 266 267 268 268 267 266 268 269 269 271 273 271 269 269 268 267 265 265 271 280 288 299 305 305 309 313 317 321 322 324 325 324 324 324 323 323 323 322 321 322 324 325 327 331 334 334 336 339 343 343
236 239 240 241 242 243 243 244 244 245 246 246 247 247 246 245 245 245 246 246 247 249 250 251 254 256 257 257 257 257 257 258 258 259 261 264 266 267 268 268 266 264 263 262 266 270 269 269 271 273 275 273 265 263 274 285 295 301 301 305 310 315 319 321 322 324 325 325 324 321 320 320 319 317 318 320 323 327 330 332 332 334 336 338 340
236 237 239 240 241 242 244 245 245 245 246 246 246 247 247 247 247 247 247 246 245 245 247 247 249 252 254 255 256 257 258 259 260 259 260 263 266 269 272 275 277 277 275 271 269 273 275 275 276 276 278 279 275 271 283 293 296 299 300 304 309 311 315 318 319 321 323 321 321 319 318 317 317 317 317 319 322 325 328 330 330 331 332 333 338
235 237 237 238 240 241 242 244 246 246 247 248 248 248 248 249 249 250 250 249 247 245 245 245 246 247 249 251 254 256 257 259 260 261 263 266 268 270 272 274 276 279 282 281 280 279 278 276 276 277 280 282 278 272 280 292 295 299 301 304 308 310 312 315 316 317 318 316 316 316 314 313 316 318 316 318 321 322 325 328 328 327 328 330 335
233 234 236 238 238 240 241 243 244 246 248 249 249 250 251 251 251 252 253 253 253 252 252 251 248 248 249 251 252 255 258 261 264 267 269 270 269 269 269 270 271 272 276 279 280 279 279 278 278 279 282 282 279 276 283 290 292 296 298 300 305 307 309 311 311 311 312 312 314 314 311 311 317 319 315 316 319 321 323 325 325 324 326 328 332
236 232 234 238 238 238 239 241 243 244 248 251 250 249 251 253 252 252 254 254 255 256 258 259 257 252 250 252 253 255 259 263 267 270 272 271 269 269 270 271 271 271 272 273 273 273 276 279 278 278 280 280 279 282 291 289 288 291 294 297 301 303 305 307 306 306 307 308 311 312 308 309 316 317 313 313 317 319 320 321 322 323 325 329 330
246 237 231 234 237 237 237 238 239 240 243 248 250 248 249 252 254 255 256 258 259 259 258 259 261 261 257 255 255 254 254 259 266 270 271 271 271 271 272 273 274 275 275 275 275 275 274 275 274 275 277 278 280 286 291 286 285 288 291 294 297 299 303 304 303 303 303 305 307 308 306 308 311 313 311 311 313 317 317 316 318 321 323 325 326
252 247 238 234 237 239 239 240 241 240 241 243 246 247 247 250 254 256 258 261 262 263 260 255 256 261 263 262 260 258 253 253 261 267 269 270 272 273 273 275 276 277 278 278 279 279 277 274 273 273 274 278 283 287 285 282 283 286 288 292 295 298 301 301 301 302 303 303 304 303 302 303 304 307 308 308 308 312 315 313 313 317 317 318 320
248 251 248 240 238 240 241 242 243 244 244 245 246 245 244 247 250 253 257 260 261 264 265 263 257 257 260 264 265 264 260 257 261 266 268 269 271 271 272 273 275 276 278 279 279 279 279 278 275 273 275 278 281 281 279 279 282 285 288 291 293 296 297 297 300 303 303 304 304 302 300 299 300 301 303 302 302 306 311 308 307 311 312 313 317
243 248 248 243 240 239 241 243 244 245 247 249 250 248 246 247 250 252 254 259 263 265 268 269 266 259 257 260 261 261 262 266 267 267 267 267 268 270 271 272 272 273 275 276 276 276 278 278 274 271 272 275 274 273 274 277 280 283 286 289 290 290 288 290 296 299 300 303 306 305 301 299 299 298 297 295 294 297 303 303 303 306 308 311 315
240 243 245 244 241 239 241 245 247 248 249 250 251 250 249 249 252 253 253 256 261 265 267 269 270 264 256 256 258 260 264 268 268 267 267 267 268 269 270 270 270 271 273 273 273 273 275 276 272 269 269 270 269 269 271 274 277 280 282 284 285 283 284 288 291 292 293 296 303 306 304 300 299 297 294 291 289 290 295 298 300 303 306 308 310
238 238 240 243 243 241 244 247 248 250 252 252 252 252 251 251 252 253 253 254 257 261 264 269 272 269 262 258 259 262 264 265 267 268 268 267 268 269 270 270 270 271 271 270 269 269 270 271 270 269 270 270 269 268 268 271 274 275 277 279 278 278 282 286 286 284 285 289 295 302 304 301 298 295 291 288 289 290 293 295 296 297 300 303 304
Height
3224 3226 3227 3228 3229 3230 3231 3232 3232 3233 3234 3235 3235 3236 3237 3238 3239 3240 3241 3242 3243 3244 3244 3245 3246 3247 3247 3248 3248 3248 3248 3248 3248 3249 3249 3249 3249 3250 3250 3250 3250 3251 3251 3251 3251 3251 3251 3251 3251 3250 3250 3249 3249 3248 3247 3246 3245 3244 3242 3241 3239 3238 3237 3236 3234 3233 3232 3230 3229 3228 3227 3225 3224 3222 3221 3219 3218 3217 3215 3214 3212 3210 3208 3206 3204
3225 3226 3228 3229 3230 3231 3232 3232 3233 3234 3234 3235 3236 3237 3238 3239 3240 3241 3242 3243 3244 3245 3245 3246 3247 3248 3248 3248 3249 3249 3249 3249 3249 3250 3250 3250 3250 3251 3251 3251 3252 3252 3252 3252 3252 3252 3252 3252 3252 3251 3251 3250 3249 3249 3248 3246 3245 3244 3243 3241 3240 3238 3237 3235 3234 3233 3231 3230 3229 3228 3227 3225 3224 3222 3221 3219 3218 3216 3215 3213 3211 3209 3207 3206 3204
3226 3227 3228 3229 3230 3231 3232 3233 3234 3234 3235 3236 3237 3238 3239 3240 3241 3242 3243 3244 3245 3246 3247 3247 3248 3249 3249 3249 3249 3249 3250 3250 3250 3251 3251 3251 3251 3252 3252 3252 3253 3253 3253 3253 3253 3253 3253 3253 3252 3252 3251 3251 3250 3249 3248 3247 3246 3244 3243 3242 3240 3238 3237 3236 3234 3233 3231 3230 3229 3228 3227 3225 3224 3222 3221 3219 3217 3216 3214 3212 3210 3208 3207 3205 3203
3226 3228 3229 3230 3231 3232 3233 3234 3234 3235 3236 3237 3238 3239 3240 3241 3242 3243 3244 3245 3246 3247 3248 3248 3249 3250 3250 3250 3250 3250 3250 3251 3251 3252 3252 3252 3252 3253 3253 3254 3254 3254 3254 3254 3254 3254 3253 3253 3253 3252 3252 3251 3250 3249 3248 3247 3246 3245 3243 3242 3240 3238 3237 3236 3234 3233 3231 3230 3228 3227 3226 3225 3224 3222 3220 3218 3217 3215 3213 3212 3210 3208 3206 3204 3202
3227 3228 3229 3231 3232 3233 3234 3234 3235 3236 3237 3238 3239 3240 3241 3242 3243 3244 3245 3246 3247 3248 3249 3249 3250 3250 3251 3251 3251 3251 3251 3252 3252 3253 3253 3253 3253 3254 3254 3254 3255 3255 3255 3255 3254 3254 3254 3254 3253 3253 3252 3251 3251 3250 3249 3248 3247 3245 3244 3242 3240 3239 3237 3236 3234 3232 3231 3229 3228 3227 3226 3224 3223 3221 3220 3218 3216 3214 3213 3211 3209 3207 3205 3203 3201
3228 3229 3230 3231 3232 3233 3234 3235 3236 3236 3237 3238 3239 3240 3242 3243 3244 3245 3246 3247 3248 3249 3249 3250 3251 3251 3251 3251 3252 3252 3252 3253 3253 3253 3254 3254 3254 3254 3255 3255 3255 3255 3255 3255 3255 3255 3255 3254 3254 3253 3253 3252 3251 3250 3249 3248 3247 3245 3244 3242 3241 3239 3235 3234 3233 3232 3230 3229 3227 3226 3225 3224 3222 3221 3219 3217 3216 3214 3212 3210 3208 3206 3204 3202 3200
3229 3230 3231 3232 3233 3234 3235 3236 3236 3237 3238 3239 3240 3241 3243 3244 3245 3246 3247 3248 3249 3250 3250 3251 3252 3252 3252 3252 3252 3252 3253 3253 3254 3254 3254 3255 3255 3255 3255 3255 3255 3255 3256 3256 3255 3255 3255 3254 3254 3253 3253 3252 3251 3250 3249 3248 3247 3246 3244 3243 3241 3239 3235 3233 3232 3231 3230 3229 3227 3226 3225 3223 3222 3220 3218 3217 3215 3213 3211 3209 3207 3205 3203 3201 3199
3230 3231 3232 3233 3234 3235 3236 3236 3237 3238 3239 3240 3241 3242 3243 3245 3246 3247 3247 3248 3249 3250 3251 3252 3252 3253 3253 3253 3253 3253 3254 3254 3255 3255 3255 3255 3255 3256 3256 3256 3256 3256 3256 3256 3256 3255 3255 3254 3254 3253 3252 3252 3251 3250 3249 3248 3247 3245 3244 3243 3241 3239 3237 3234 3232 3231 3230 3229 3227 3226 3224 3223 3221 3220 3218 3216 3214 3212 3210 3208 3206 3204 3202 3200 3198
3231 3232 3233 3234 3235 3235 3236 3237 3237 3238 3239 3240 3241 3243 3244 3245 3246 3247 3248 3249 3249 3251 3251 3252 3253 3253 3253 3253 3254 3254 3254 3255 3255 3255 3255 3256 3256 3256 3256 3256 3256 3256 3256 3256 3256 3255 3255 3254 3254 3253 3252 3251 3250 3249 3249 3248 3247 3245 3244 3242 3241 3239 3238 3235 3233 3231 3230 3229 3227 3226 3224 3223 3221 3219 3217 3215 3214 3211 3209 3207 3205 3203 3201 3199 3197
3231 3232 3233 3234 3235 3236 3237 3237 3238 3239 3240 3241 3242 3243 3244 3245 3247 3248 3248 3249 3250 3251 3252 3252 3253 3254 3254 3254 3254 3255 3255 3255 3255 3256 3256 3256 3256 3257 3257 3257 3257 3257 3256 3256 3256 3255 3255 3254 3254 3253 3252 3251 3250 3249 3248 3247 3246 3245 3243 3242 3241 3239 3237 3236 3234 3232 3230 3229 3227 3225 3224 3222 3221 3219 3217 3215 3213 3211 3209 3207 3204 3202 3200 3198 3196
3232 3233 3233 3234 3235 3236 3237 3238 3238 3239 3240 3242 3243 3244 3245 3246 3247 3248 3249 3250 3250 3251 3252 3253 3253 3254 3255 3255 3255 3255 3256 3256 3256 3256 3257 3257 3257 3257 3257 3257 3257 3257 3257 3256 3256 3255 3255 3254 3254 3253 3252 3251 3250 3249 3248 3247 3246 3244 3243 3241 3240 3239 3237 3235 3234 3232 3231 3229 3227 3225 3223 3222 3220 3219 3217 3215 3213 3211 3209 3206 3204 3202 3199 3197 3195
3232 3233 3234 3235 3235 3236 3237 3238 3239 3240 3241 3242 3243 3244 3245 3246 3248 3248 3249 3250 3251 3252 3253 3253 3254 3254 3255 3255 3255 3256 3256 3256 3256 3257 3257 3257 3257 3257 3257 3257 3257 3257 3257 3256 3255 3255 3255 3254 3253 3252 3251 3250 3249 3248 3247 3246 3245 3244 3242 3241 3240 3238 3236 3235 3233 3232 3230 3229 3227 3225 3223 3221 3220 3218 3217 3215 3213 3211 3208 3206 3204 3201 3199 3196 3195
3232 3233 3234 3235 3236 3237 3237 3238 3239 3240 3242 3243 3244 3245 3246 3247 3248 3249 3250 3251 3252 3252 3253 3254 3255 3255 3255 3256 3256 3256 3256 3257 3257 3257 3257 3257 3257 3257 3257 3257 3257 3257 3256 3255 3253 3253 3254 3254 3253 3252 3251 3250 3249 3248 3247 3246 3244 3243 3242 3240 3239 3238 3236 3234 3233 3231 3230 3228 3226 3224 3223 3221 3220 3218 3216 3215 3213 3210 3208 3206 3204 3201 3199 3196 3194
3233 3234 3234 3235 3236 3237 3238 3239 3240 3241 3242 3243 3245 3246 3247 3248 3249 3250 3251 3251 3252 3253 3253 3254 3255 3255 3255 3256 3256 3256 3257 3257 3257 3257 3258 3258 3258 3257 3257 3257 3257 3256 3256 3255 3253 3253 3254 3253 3252 3252 3250 3249 3248 3246 3245 3244 3244 3243 3241 3240 3238 3237 3235 3234 3232 3231 3229 3228 3226 3224 3222 3221 3219 3218 3216 3214 3212 3210 3208 3206 3203 3201 3199 3196 3194
3233 3234 3235 3235 3236 3237 3238 3239 3240 3241 3243 3244 3245 3246 3247 3248 3249 3250 3251 3252 3252 3253 3254 3254 3255 3255 3256 3256 3257 3257 3257 3257 3257 3257 3258 3258 3258 3258 3257 3257 3257 3256 3256 3255 3254 3254 3254 3253 3252 3251 3250 3249 3248 3246 3244 3244 3243 3242 3241 3239 3238 3236 3235 3233 3232 3230 3229 3227 3226 3224 3222 3221 3219 3218 3216 3214 3212 3210 3207 3205 3203 3201 3199 3196 3194
3233 3234 3235 3235 3236 3237 3238 3239 3241 3242 3243 3244 3245 3246 3247 3248 3249 3250 3251 3251 3252 3253 3254 3254 3254 3255 3256 3256 3256 3257 3257 3258 3258 3258 3258 3258 3258 3258 3257 3257 3257 3256 3255 3255 3255 3254 3253 3252 3251 3250 3249 3249 3248 3246 3244 3243 3242 3241 3240 3239 3237 3236 3234 3233 3231 3230 3228 3227 3225 3224 3222 3221 3219 3218 3216 3214 3212 3209 3207 3204 3202 3200 3198 3196 3194
3233 3234 3235 3236 3237 3237 3238 3240 3241 3242 3243 3244 3245 3246 3247 3248 3249 3250 3251 3251 3252 3252 3253 3254 3254 3254 3255 3255 3256 3257 3257 3257 3258 3257 3258 3258 3258 3258 3257 3257 3257 3256 3255 3255 3254 3254 3253 3251 3250 3249 3248 3248 3247 3245 3243 3242 3241 3240 3239 3238 3237 3235 3234 3232 3231 3229 3228 3226 3225 3223 3222 3220 3219 3217 3216 3213 3211 3209 3206 3204 3202 3200 3198 3196 3194
3233 3234 3235 3236 3237 3238 3239 3240 3241 3242 3243 3244 3245 3246 3247 3248 3249 3249 3250 3251 3251 3252 3253 3253 3254 3254 3255 3255 3255 3256 3256 3257 3257 3257 3257 3257 3257 3257 3256 3256 3256 3255 3254 3254 3254 3253 3252 3251 3249 3248 3247 3246 3245 3243 3242 3242 3241 3240 3238 3237 3236 3235 3233 3232 3230 3229 3227 3226 3224 3223 3222 3220 3219 3217 3215 3213 3211 3208 3206 3204 3202 3200 3198 3196 3194
3233 3234 3235 3236 3237 3238 3239 3240 3241 3242 3243 3244 3245 3246 3247 3248 3248 3249 3250 3251 3251 3252 3252 3253 3253 3254 3255 3255 3255 3255 3256 3256 3256 3256 3256 3256 3256 3256 3256 3255 3256 3256 3255 3255 3255 3253 3251 3249 3249 3248 3246 3245 3244 3243 3242 3241 3240 3239 3237 3236 3235 3234 3232 3231 3229 3228 3227 3225 3224 3223 3221 3220 3218 3216 3215 3212 3210 3208 3206 3204 3202 3200 3198 3197 3195
3234 3234 3235 3236 3237 3238 3239 3240 3241 3242 3243 3244 3245 3246 3247 3247 3248 3249 3249 3250 3251 3251 3252 3252 3253 3254 3254 3254 3254 3255 3255 3255 3255 3255 3256 3256 3254 3253 3255 3255 3255 3255 3254 3255 3254 3252 3250 3248 3248 3247 3245 3244 3244 3242 3242 3240 3239 3238 3236 3235 3234 3233 3232 3230 3229 3227 3226 3225 3223 3222 3221 3219 3218 3216 3214 3212 3210 3208 3206 3204 3202 3200 3199 3197 3195
3234 3235 3236 3236 3237 3238 3239 3240 3241 3242 3243 3244 3245 3245 3246 3247 3248 3248 3249 3250 3250 3251 3251 3252 3252 3253 3253 3253 3254 3254 3254 3254 3255 3255 3255 3254 3253 3252 3253 3254 3255 3254 3253 3253 3252 3251 3250 3248 3247 3246 3244 3243 3243 3242 3241 3240 3238 3236 3235 3234 3233 3232 3231 3229 3228 3227 3225 3224 3223 3222 3220 3219 3217 3216 3214 3212 3210 3208 3206 3204 3202 3201 3199 3197 3195
3234 3235 3236 3237 3237 3238 3239 3240 3241 3242 3243 3244 3244 3245 3246 3247 3247 3248 3249 3249 3250 3250 3251 3252 3252 3252 3253 3253 3253 3253 3254 3253 3254 3254 3254 3253 3252 3252 3253 3254 3254 3252 3251 3251 3250 3249 3249 3248 3247 3246 3243 3242 3242 3241 3240 3239 3237 3236 3234 3234 3233 3231 3230 3228 3227 3226 3225 3224 3222 3221 3219 3218 3217 3215 3213 3211 3210 3208 3206 3204 3203 3201 3199 3197 3195
3234 3235 3236 3237 3237 3238 3239 3240 3241 3242 3243 3243 3244 3245 3245 3246 3247 3247 3248 3249 3249 3250 3250 3251 3251 3252 3252 3252 3253 3253 3253 3253 3253 3253 3253 3251 3251 3251 3252 3252 3252 3251 3250 3249 3249 3248 3247 3246 3246 3245 3243 3242 3241 3240 3239 3237 3236 3235 3234 3233 3232 3230 3229 3228 3227 3225 3224 3223 3222 3220 3219 3217 3216 3215 3213 3211 3209 3208 3206 3204 3203 3201 3199 3197 3196
3234 3235 3236 3236 3237 3238 3239 3239 3240 3241 3242 3243 3243 3244 3245 3245 3246 3246 3247 3248 3248 3249 3249 3250 3250 3251 3251 3252 3252 3252 3252 3252 3252 3252 3251 3251 3250 3250 3250 3250 3250 3250 3249 3248 3248 3247 3246 3245 3244 3243 3242 3241 3240 3239 3238 3236 3235 3234 3233 3232 3231 3230 3229 3227 3226 3225 3224 3222 3221 3220 3218 3217 3215 3214 3213 3211 3209 3208 3206 3204 3203 3201 3199 3197 3196
3234 3235 3235 3236 3237 3237 3238 3239 3239 3240 3241 3242 3242 3243 3244 3244 3245 3246 3246 3247 3247 3248 3248 3249 3249 3250 3250 3251 3251 3251 3251 3251 3251 3251 3251 3250 3250 3250 3249 3249 3249 3249 3248 3247 3246 3246 3245 3243 3242 3242 3241 3240 3239 3238 3237 3235 3234 3233 3232 3231 3230 3229 3228 3227 3225 3224 3223 3221 3220 3219 3217 3216 3215 3213 3212 3211 3209 3207 3206 3204 3203 3201 3200 3197 3196
3233 3234 3234 3235 3236 3237 3237 3238 3239 3239 3240 3241 3241 3242 3243 3243 3244 3245 3245 3246 3246 3247 3247 3248 3248 3249 3249 3249 3250 3250 3250 3250 3250 3250 3250 3250 3249 3249 3248 3248 3248 3248 3247 3246 3245 3245 3244 3243 3241 3240 3240 3239 3239 3238 3236 3235 3234 3232 3231 3230 3229 3228 3227 3226 3224 3223 3222 3221 3219 3218 3217 3215 3214 3213 3212 3210 3209 3207 3206 3204 3203 3201 3199 3197 3196
3232 3233 3234 3234 3235 3236 3237 3237 3238 3239 3239 3240 3241 3241 3242 3242 3243 3244 3244 3245 3245 3246 3246 3247 3247 3247 3248 3248 3248 3249 3249 3249 3249 3249 3249 3248 3248 3248 3247 3247 3246 3246 3246 3245 3244 3244 3243 3242 3241 3239 3239 3238 3237 3236 3236 3234 3233 3232 3231 3230 3228 3227 3226 3225 3223 3222 3221 3220 3219 3217 3216 3215 3214 3213 3212 3210 3209 3208 3206 3204 3203 3201 3199 3197 3195
3232 3232 3233 3234 3234 3235 3236 3237 3237 3238 3239 3239 3240 3241 3241 3242 3242 3243 3243 3244 3244 3244 3245 3245 3246 3246 3246 3247 3247 3247 3247 3247 3247 3247 3247 3247 3247 3246 3246 3246 3245 3245 3245 3244 3244 3243 3242 3241 3240 3238 3237 3237 3236 3235 3235 3234 3233 3232 3230 3229 3228 3226 3225 3224 3223 3221 3220 3219 3218 3217 3216 3215 3214 3213 3211 3210 3209 3208 3206 3204 3202 3200 3199 3197 3195
3231 3232 3232 3233 3234 3234 3235 3236 3237 3237 3238 3238 3239 3240 3240 3241 3241 3242 3242 3242 3243 3243 3244 3244 3244 3245 3245 3245 3245 3245 3245 3245 3246 3246 3245 3245 3245 3245 3245 3244 3244 3244 3243 3243 3242 3242 3241 3240 3239 3237 3236 3236 3235 3234 3234 3233 3232 3231 3230 3229 3227 3226 3224 3223 3222 3221 3219 3218 3217 3216 3215 3214 3213 3212 3211 3210 3209 3207 3206 3204 3202 3200 3198 3196 3195
3231 3231 3232 3232 3233 3233 3234 3235 3236 3236 3237 3237 3238 3238 3239 3240 3240 3241 3241 3241 3242 3242 3242 3243 3243 3243 3244 3244 3244 3244 3244 3244 3244 3244 3244 3244 3244 3244 3243 3243 3242 3242 3242 3241 3241 3240 3239 3239 3238 3236 3235 3235 3234 3233 3233 3232 3232 3230 3229 3228 3227 3225 3224 3223 3221 3220 3219 3218 3216 3215 3214 3214 3213 3212 3210 3209 3208 3207 3205 3203 3201 3199 3197 3195 3194
3230 3230 3231 3232 3232 3233 3233 3234 3235 3235 3236 3236 3237 3237 3238 3238 3239 3239 3240 3240 3240 3241 3241 3241 3242 3242 3242 3242 3242 3242 3242 3242 3243 3243 3243 3242 3242 3242 3242 3241 3241 3240 3240 3239 3239 3239 3238 3237 3237 3235 3234 3234 3234 3233 3232 3231 3231 3230 3229 3227 3226 3225 3223 3222 3221 3220 3218 3217 3216 3215 3214 3213 3212 3211 3210 3209 3207 3206 3204 3202 3200 3199 3197 3195 3193
3228 3229 3230 3231 3231 3232 3233 3233 3234 3234 3234 3235 3235 3236 3237 3237 3238 3238 3238 3238 3239 3239 3240 3240 3240 3240 3240 3241 3241 3241 3241 3241 3241 3241 3241 3241 3241 3241 3240 3239 3239 3239 3238 3238 3237 3236 3236 3236 3235 3235 3233 3233 3233 3232 3231 3230 3229 3229 3228 3227 3226 3224 3223 3221 3220 3219 3218 3216 3215 3214 3213 3212 3211 3210 3209 3208 3206 3205 3203 3201 3200 3198 3196 3194 3192
3227 3228 3229 3229 3230 3231 3231 3232 3232 3233 3233 3234 3234 3234 3235 3236 3236 3237 3237 3237 3237 3238 3238 3238 3238 3239 3239 3239 3239 3239 3239 3239 3239 3239 3239 3239 3239 3238 3238 3238 3237 3237 3236 3236 3235 3234 3234 3234 3234 3233 3232 3232 3231 3231 3231 3230 3229 3228 3227 3226 3225 3224 3223 3222 3220 3218 3217 3216 3215 3214 3212 3211 3210 3209 3208 3207 3205 3204 3202 3201 3199 3197 3195 3194 3192
3225 3226 3227 3228 3229 3229 3230 3231 3231 3231 3232 3232 3233 3233 3234 3234 3235 3235 3235 3235 3236 3236 3236 3237 3237 3237 3237 3237 3237 3238 3238 3238 3238 3238 3238 3238 3237 3237 3236 3236 3235 3235 3234 3234 3234 3233 3233 3232 3232 3231 3231 3231 3230 3230 3229 3229 3228 3227 3226 3225 3224 3223 3223 3222 3220 3217 3216 3215 3214 3213 3211 3210 3209 3208 3207 3206 3204 3203 3201 3200 3198 3196 3195 3193 3192
3223 3224 3225 3226 3227 3227 3228 3229 3230 3230 3230 3231 3231 3232 3232 3232 3233 3233 3234 3234 3234 3235 3235 3235 3235 3235 3236 3236 3236 3236 3236 3236 3236 3236 3236 3236 3236 3235 3235 3234 3234 3233 3233 3232 3232 3232 3232 3231 3230 3230 3229 3229 3229 3229 3228 3228 3227 3226 3225 3224 3224 3223 3222 3221 3219 3217 3215 3214 3213 3211 3210 3209 3208 3207 3206 3205 3203 3202 3200 3199 3197 3196 3194 3193 3191
3221 3222 3223 3223 3224 3225 3226 3227 3228 3228 3229 3229 3230 3230 3231 3231 3231 3232 3232 3232 3232 3233 3233 3233 3234 3234 3234 3234 3234 3234 3234 3234 3234 3234 3234 3234 3234 3234 3233 3233 3232 3232 3231 3231 3231 3231 3230 3229 3229 3229 3228 3228 3227 3227 3227 3226 3226 3225 3224 3224 3223 3222 3221 3220 3219 3217 3215 3213 3212 3211 3210 3208 3207 3206 3205 3204 3202 3201 3199 3198 3196 3195 3193 3192 3190
3219 3220 3220 3221 3222 3223 3224 3225 3226 3226 3227 3227 3228 3228 3229 3229 3229 3230 3230 3230 3230 3231 3231 3231 3231 3232 3232 3232 3232 3232 3232 3232 3232 3232 3232 3232 3232 3232 3231 3231 3230 3230 3229 3229 3229 3229 3228 3228 3228 3227 3227 3226 3226 3226 3225 3225 3224 3223 3223 3222 3222 3221 3220 3219 3218 3217 3214 3213 3211 3209 3208 3207 3206 3205 3203 3202 3201 3200 3198 3197 3196 3194 3193 3191 3190
3216 3217 3218 3219 3220 3221 3222 3222 3223 3224 3224 3225 3225 3226 3226 3227 3227 3228 3228 3228 3228 3229 3229 3229 3229 3229 3230 3230 3230 3230 3230 3230 3230 3230 3230 3230 3230 3229 3229 3229 3228 3228 3228 3227 3227 3227 3227 3226 3226 3226 3225 3225 3224 3224 3223 3223 3223 3222 3221 3221 3220 3219 3219 3218 3217 3216 3214 3212 3211 3209 3207 3205 3204 3203 3202 3201 3200 3199 3197 3196 3195 3193 3192 3190 3189
3214 3215 3216 3216 3217 3218 3219 3220 3221 3221 3222 3222 3222 3223 3224 3224 3224 3225 3225 3226 3226 3226 3227 3227 3227 3227 3227 3228 3228 3228 3228 3228 3228 3228 3228 3227 3227 3227 3227 3226 3226 3226 3226 3225 3225 3225 3225 3224 3224 3224 3223 3222 3222 3222 3221 3221 3221 3220 3220 3219 3218 3218 3217 3216 3215 3214 3213 3212 3210 3209 3207 3205 3203 3202 3200 3200 3199 3198 3196 3195 3194 3193 3191 3189 3188
3211 3212 3213 3214 3215 3216 3217 3217 3218 3219 3219 3219 3220 3220 3221 3221 3222 3222 3223 3223 3223 3224 3224 3225 3225 3225 3225 3226 3226 3226 3226 3226 3226 3226 3225 3225 3225 3225 3225 3224 3224 3224 3224 3223 3223 3223 3222 3222 3222 3221 3221 3220 3219 3219 3219 3218 3218 3218 3218 3218 3217 3216 3215 3214 3213 3213 3211 3210 3209 3208 3206 3205 3203 3200 3199 3198 3198 3197 3195 3194 3193 3192 3190 3189 3187
3209 3210 3211 3211 3212 3213 3214 3214 3215 3216 3217 3217 3217 3218 3219 3219 3220 3220 3220 3220 3220 3221 3221 3222 3222 3223 3223 3223 3223 3223 3223 3223 3223 3223 3223 3223 3223 3223 3223 3222 3221 3221 3221 3221 3220 3220 3220 3220 3220 3220 3219 3219 3217 3215 3215 3215 3216 3216 3216 3216 3215 3214 3213 3212 3211 3210 3209 3208 3207 3206 3205 3203 3202 3200 3198 3197 3196 3195 3194 3193 3192 3191 3190 3189 3187
3206 3207 3208 3209 3210 3211 3211 3212 3213 3214 3214 3214 3215 3216 3217 3217 3217 3217 3217 3217 3217 3218 3218 3218 3219 3220 3220 3220 3221 3220 3220 3220 3221 3221 3221 3221 3220 3221 3221 3220 3220 3220 3220 3218 3217 3217 3218 3218 3218 3217 3217 3217 3215 3212 3211 3213 3213 3213 3213 3213 3213 3212 3211 3211 3209 3208 3207 3206 3205 3204 3203 3202 3200 3198 3196 3195 3194 3193 3192 3192 3191 3190 3189 3188 3187
3202 3204 3205 3206 3207 3208 3209 3210 3211 3211 3212 3212 3213 3214 3215 3214 3215 3215 3215 3215 3215 3215 3215 3215 3216 3216 3217 3217 3218 3218 3218 3218 3218 3218 3218 3218 3218 3218 3218 3218 3217 3217 3217 3216 3215 3215 3215 3215 3216 3215 3214 3214 3214 3212 3210 3211 3212 3211 3212 3211 3211 3210 3209 3209 3207 3206 3205 3204 3203 3202 3201 3199 3198 3196 3194 3193 3193 3191 3190 3190 3189 3188 3188 3187 3186
3197 3199 3201 3203 3204 3205 3206 3207 3208 3209 3209 3209 3210 3212 3212 3212 3212 3212 3212 3212 3212 3212 3213 3213 3213 3213 3214 3214 3215 3215 3215 3215 3215 3216 3216 3216 3216 3216 3215 3215 3214 3214 3213 3214 3213 3213 3213 3213 3213 3213 3212 3212 3213 3211 3209 3209 3210 3210 3210 3210 3209 3208 3207 3206 3205 3204 3203 3202 3201 3200 3198 3196 3195 3195 3192 3191 3191 3190 3189 3188 3187 3186 3186 3185 3184
3193 3194 3196 3199 3200 3201 3203 3204 3204 3206 3206 3206 3207 3208 3209 3209 3209 3209 3209 3209 3209 3210 3210 3210 3210 3210 3210 3211 3211 3211 3212 3212 3212 3213 3213 3213 3213 3213 3212 3212 3212 3211 3210 3210 3210 3210 3210 3210 3210 3211 3210 3210 3211 3209 3207 3207 3208 3208 3208 3208 3207 3207 3205 3204 3203 3202 3201 3200 3199 3198 3197 3194 3193 3193 3191 3189 3189 3188 3187 3186 3185 3184 3184 3183 3183
3191 3190 3190 3193 3195 3196 3198 3199 3200 3201 3202 3201 3202 3204 3205 3205 3206 3206 3206 3206 3207 3207 3207 3207 3207 3207 3207 3208 3208 3208 3208 3208 3208 3209 3210 3210 3210 3210 3210 3209 3209 3209 3208 3208 3208 3208 3208 3208 3208 3208 3208 3207 3207 3206 3205 3206 3206 3205 3205 3205 3205 3205 3204 3202 3201 3200 3198 3197 3197 3196 3195 3193 3192 3191 3189 3187 3186 3186 3185 3184 3183 3183 3182 3182 3181
3187 3187 3187 3189 3191 3193 3195 3196 3196 3196 3196 3196 3197 3199 3201 3202 3202 3203 3204 3204 3204 3203 3202 3202 3203 3204 3204 3205 3205 3205 3204 3203 3204 3206 3206 3206 3206 3206 3206 3206 3206 3206 3206 3206 3206 3206 3206 3205 3205 3205 3205 3204 3203 3202 3202 3203 3203 3203 3203 3203 3202 3202 3202 3200 3199 3197 3196 3196 3195 3194 3193 3192 3190 3189 3188 3186 3184 3183 3184 3183 3181 3181 3181 3180 3180
3183 3185 3186 3188 3188 3189 3191 3192 3193 3194 3194 3194 3194 3196 3197 3198 3198 3199 3200 3200 3200 3199 3200 3200 3201 3200 3201 3201 3201 3202 3201 3199 3199 3202 3202 3202 3202 3202 3202 3202 3203 3203 3203 3203 3203 3203 3203 3203 3203 3203 3201 3200 3199 3200 3200 3200 3200 3200 3200 3200 3199 3199 3199 3198 3197 3194 3194 3194 3193 3191 3191 3190 3188 3187 3186 3185 3182 3181 3181 3181 3180 3179 3179 3178 3178
3179 3180 3183 3185 3185 3186 3187 3188 3190 3190 3191 3193 3194 3194 3194 3195 3195 3196 3196 3196 3196 3197 3198 3199 3199 3199 3198 3197 3198 3198 3197 3195 3195 3197 3199 3198 3198 3198 3198 3198 3199 3199 3199 3200 3200 3199 3199 3199 3200 3200 3199 3197 3197 3197 3197 3197 3197 3197 3197 3197 3196 3196 3196 3196 3195 3192 3190 3191 3190 3189 3188 3187 3186 3185 3184 3183 3181 3179 3179 3178 3177 3177 3177 3176 3175
3174 3176 3179 3181 3181 3182 3183 3185 3186 3187 3188 3189 3190 3190 3191 3192 3193 3193 3193 3193 3193 3194 3195 3195 3195 3196 3195 3193 3193 3193 3192 3192 3193 3194 3195 3195 3194 3194 3195 3194 3194 3195 3196 3196 3196 3196 3196 3196 3196 3196 3196 3195 3195 3194 3194 3194 3194 3194 3194 3193 3193 3193 3193 3192 3192 3190 3188 3188 3188 3187 3185 3184 3183 3182 3181 3180 3179 3178 3177 3176 3175 3174 3174 3173 3172
3169 3171 3173 3176 3177 3178 3179 3181 3182 3183 3183 3184 3186 3186 3187 3188 3189 3189 3189 3189 3189 3190 3190 3190 3191 3191 3190 3188 3187 3187 3188 3189 3190 3190 3191 3191 3191 3191 3190 3190 3190 3191 3193 3192 3190 3190 3191 3192 3192 3192 3192 3192 3191 3191 3191 3191 3191 3191 3191 3190 3190 3190 3190 3189 3189 3188 3186 3185 3186 3185 3183 3182 3181 3180 3179 3178 3176 3175 3174 3174 3173 3172 3171 3170 3169